{"data":{"norad_id":57776,"epoch":"2026-05-24T09:47:38.081760Z","epoch_age_seconds":125778,"freshness":"FRESH","line1":"1 57776U 23134F   26144.40807965  .00000745  00000+0  36592-4 0  9995","line2":"2 57776  43.0037 127.1557 0001337 286.4953  73.5751 15.27572814151085","mean_motion":15.27572814,"eccentricity":0.0001337,"inclination_deg":43.0037,"raan_deg":127.1557,"arg_perigee_deg":286.4953,"mean_anomaly_deg":73.5751,"bstar":3.6592e-5,"rev_number":15108,"period_min":94.267192162795,"perigee_km":482.15327013522,"apogee_km":483.98795705109,"semimajor_km":6861.2076135932,"source":"CELESTRAK","updated_at":"2026-05-25T13:38:18.404750Z"}}